Regional Weather Roundup
Issued by NWS Grand Forks, ND

Home | Current Version | Previous Version | Graphics & Text | Print | Product List | Glossary On
Versions: 1 2 3 4 5 6 7 8 9 10 11 12 13 14 15 16 17 18 19 20 21 22 23 24 25 26 27 28 29 30 31 32 33 34 35 36 37 38 39 40 41 42 43 44 45 46 47 48 49 50
000
ASUS43 KFGF 201010
RWRFGF
PRAIRIE TO PINES  WEATHER ROUNDUP
NATIONAL WEATHER SERVICE EASTERN NORTH DAKOTA/GRAND FORKS ND
400 AM CST MON NOV 20 2017

 **SATELLITE DATA USED TO AUGMENT SKY COVER AT AUTOMATED STATIONS**
 *****  WEATHER ACROSS EASTERN NORTH DAKOTA  *****

CITY           SKY/WX    TMP DP  RH WIND       PRES   REMARKS
GRAND FORKS    FAIR      25  23  92 S9        29.51F WCI  15
GRAND FRKS AFB FAIR      25  22  87 S10       29.49F WCI  15
GRAND FRKS NWS   N/A     27 N/A N/A S9          N/A  WCI  17
DEVILS LAKE    FAIR      31  25  78 SW12      29.46F WCI  22
FARGO          FAIR      29  21  72 S9        29.58F WCI  20
WAHPETON ARPT  NOT AVBL
$$

 ***** WEATHER ACROSS CENTRAL AND WESTERN NORTH DAKOTA  *****

CITY           SKY/WX    TMP DP  RH WIND       PRES   REMARKS
BISMARCK       FAIR      28  20  71 S3        29.51F
MINOT          FAIR      37  23  56 SW13      29.39F
JAMESTOWN      FAIR      27  22  81 S8        29.50F WCI  19
MINOT AFB      CLOUDY    39  23  52 SW14      29.38F
GARRISON         N/A     31  23  72 S3        29.46F
WILLISTON      FAIR      30  23  75 SW7       29.44F WCI  23
DICKINSON      FAIR      39  19  44 SW15      29.47F
HETTINGER      FAIR      27  17  66 W3        29.55F
$$

 *****  OTHER AIRPORT OBSERVATIONS IN OUR AREA  *****

CITY           SKY/WX    TMP DP  RH WIND       PRES   REMARKS
WALHALLA       FAIR      25  25 100 S9        29.46F WCI  15
GRAFTON AIRPOR NOT AVBL
VALLEY CITY AR NOT AVBL
CANDO          FAIR      25  25 100 S6        29.45F WCI  18
CAVALIER APRT  FAIR      21  21 100 S9        29.48F WCI  11
GWINNER          N/A     27  23  86 SW7       29.57F WCI  19
SHEYENNE NWR     N/A     21  20  94 SE3       29.95S
ROLLA          FAIR      28  23  80 SW13      29.39F WCI  18
 ***** THE ABOVE OBSERVATIONS ARE NON NWS ARE NOT QUALITY
       CONTROLLED AND MAY MIS-REPORT RAIN FOR SNOW...
$$

  *****  WEATHER ACROSS NORTHERN MINNESOTA  *****

CITY           SKY/WX    TMP DP  RH WIND       PRES   REMARKS
FLAG ISLAND    CLOUDY    19  16  86 SE9       29.56F WCI   9
WARROAD        FAIR      19  18  93 SE5       29.56F WCI  13
ROSEAU         FAIR      25  19  80 SE8       29.54F WCI  16
HALLOCK        FAIR      27  23  86 SE13      29.50F WCI  16
THF RVR FALLS  FAIR      24  22  91 SE9       29.55F WCI  14
BAUDETTE       MOCLDY    16  13  88 SE6       29.58F WCI   7
WASKISH        FAIR      21  19  93 SE3       29.60F
CROOKSTON      FAIR      27  25  93 S10       29.54F WCI  17
STEPHEN NDAWN    N/A     27  23  86 SE10        N/A  WCI  17
GREENBUSH NDAW   N/A     25  21  86 SE9         N/A  WCI  15
$$
  *****  WEATHER ACROSS CENTRAL AND WEST MINNESOTA  *****

CITY           SKY/WX    TMP DP  RH WIND       PRES   REMARKS
FOSSTON        FAIR      27  25  93 SE8       29.57F WCI  18
BEMIDJI        FAIR      19  18  96 E3        29.60F
PARK RAPIDS    FAIR      23  20  88 SE7       29.60F WCI  15
ELBOW LAKE     FAIR      27  23  87 E8        29.62F WCI  18
WADENA         FAIR      19  18  93 CALM      29.62F
DETROIT LAKES  FAIR      27  23  86 SE7       29.60F WCI  19
MOORHEAD       FAIR      27  21  80 S10       29.60F WCI  17
FERGUS FALLS   FAIR      28  21  74 SE9       29.63F WCI  20
MORRIS MN      FAIR      25  21  86 SE8       29.63F WCI  16
STAPLES        FAIR      21  21 100 CALM      29.63F
$$
  *****  WEATHER ELSEWHERE ACROSS MINNESOTA  *****

CITY           SKY/WX    TMP DP  RH WIND       PRES   REMARKS
DULUTH         FAIR      20  19  96 S3        29.67F
INTRNTL FALLS  CLOUDY    16  12  84 SE7       29.62F WCI   6
ELY            FAIR      12  10  92 CALM      29.66F
CLOQUET        FAIR      19  16  86 CALM      29.67F
WHEATON        FAIR      32  25  74 SE8       29.62F WCI  25
BRAINERD       FAIR      22  19  89 SE3       29.65F
HIBBING        MOCLDY    13  11  92 CALM      29.66F
ALEXANDRIA     FAIR      27  22  81 S5        29.64F WCI  22
SAINT CLOUD    FAIR      24  21  88 SE5       29.68F WCI  18
MINNEAPOLIS    FAIR      30  26  85 SE6       29.73F WCI  24
$$

  *****  WEATHER ACROSS SOUTH DAKOTA  *****

CITY           SKY/WX    TMP DP  RH WIND       PRES   REMARKS
SIOUX FALLS    FAIR      25  21  85 SE3       29.67F
BROOKINGS      FAIR      28  22  78 SE8       29.65  WCI  20
WATERTOWN      FAIR      27  22  81 S7        29.61F WCI  19
HURON          FAIR      28  22  78 SE8       29.61F WCI  20
SISSETON         N/A     29  23  78 SE8       29.58F WCI  21
ABERDEEN       FAIR      20  18  92 S5        29.59F WCI  13
MITCHELL       FAIR      30  24  78 S6        29.64F WCI  24
PIERRE         FAIR      30  22  72 SW8       29.60F WCI  22
MOBRIDGE       FAIR      30  23  75 SE6       29.54F WCI  24
RAPID CITY     FAIR      35  15  44 CALM      29.62F
$$

  *****  SOME WEATHER IN NEARBY STATES *****

CITY           SKY/WX    TMP DP  RH WIND       PRES   REMARKS
GLASGOW MT     CLOUDY    50  17  27 W18G25    29.41S
GREAT FALLS MT FAIR      48   8  19 SW24G41   29.50F
CHEYENNE WY    FAIR      46   0  14 SW14      29.89S
SCOTTSBLUFF NE FAIR      44   9  23 W9        29.79R
OMAHA NE       FAIR      34  25  69 SE13      29.82F WCI  25
DES MOINES IA  FAIR      38  27  64 S8        29.86F
DAVENPORT IA   FAIR      33  25  72 S9        29.95F
CHICAGO IL     FAIR      33  22  63 SW12      29.97F WCI  24
EAU CLAIRE WI  FAIR      20  19  96 CALM      29.76F
LA CROSSE WI   FAIR      34  27  75 SE7       29.82F
$$

  *****  SOME NATIONAL WEATHER *****

CITY           SKY/WX    TMP DP  RH WIND       PRES   REMARKS
LA GUARDIA NY  MOCLDY    39  24  55 W14       29.93R
RALEIGH NC     FAIR      31  27  85 CALM      30.16R
ATLANTA GA     FAIR      34  28  79 NW9       30.17S
NEW ORLEANS LA FAIR      52  35  52 NE12      30.20F
OKLAHOMA CITY  FAIR      39  27  62 S10       30.09F
ALBUQUERQUE NM FAIR      28   4  35 SE3       30.17R
SALT LAKE CITY FAIR      36  31  82 CALM      30.08R
LOS ANGELES CA FAIR      52  48  86 E6        29.99F
BOISE ID       CLOUDY    43  29  57 SE12      29.95F
SEATTLE WA     CLOUDY    46  44  93 SE5       29.59F
$$

*** WEATHER ACROSS MANITOBA...SASKATCHEWAN AND ONTARIO ***
                ***ONTARIO***

CITY           SKY/WX    TMP DP  RH WIND       PRES   REMARKS
GERALDTON      MOCLDY     5   3  92 VRB2      29.72F
THUNDER BAY    PTCLDY     9   7  92 CALM      29.80R
SIOUX LOOKOUT  CLOUDY     9   7  92 SE5       29.64F WCI   0
TORONTO        CLOUDY    30  21  69 W14G23    29.90R WCI  20
BIG TROUT LK   CLEAR      1   0  92 W7        29.63F WCI -11
PICKLE LAKE    NOT AVBL
DRYDEN         MOCLDY    14  10  85 SE9       29.61F WCI   2
KENORA         MOCLDY    18  14  86 SE9       29.57F WCI   6
$$
                *** MANITOBA***

CITY           SKY/WX    TMP DP  RH WIND       PRES   REMARKS
BRANDON        MOCLDY    16  12  86 NE7       29.35F WCI   6
DAUPHIN        PTCLDY    18  14  86 E6        29.34F WCI   9
ISLAND LAKE    NOT AVBL
PILOT MOUND      N/A     27  21  80 S15         N/A  WCI  15
THE PAS        LGT SNOW  10   7  85 E12G18    29.41F WCI  -4
THOMPSON       MOCLDY    -6  -9  84 CALM      29.60F
WINNIPEG       CLOUDY    23  18  80 SE14      29.46F WCI  11
LYNN LAKE      FLURRIES  -4  -8  84 E5        29.53F WCI -15
CHURCHILL      CLOUDY    19  19 100 NW10      29.57S WCI   8
GILLAM         FLURRIES   3  -2  78 NW6       29.60F WCI  -8
$$
                ***SASKATCHEWAN***

CITY           SKY/WX    TMP DP  RH WIND       PRES   REMARKS
ESTEVAN        MOCLDY    30  21  69 SW10      29.35F WCI  21
KINDERSLEY     CLOUDY    34  28  80 W16G23    29.25R WCI  23
LLOYDMINSTER   LGT SNOW  18  16  93 NW17G30   29.29S VSB 1   WCI   2
PRINCE ALBERT  CLOUDY    12   7  79 NE8       29.27R WCI   1
REGINA         CLOUDY    32  25  74 SW16      29.27F WCI  21
YORKTON        CLOUDY    23  19  86 S13       29.22F WCI  11
N. BATTLEFORD  CLOUDY    12   9  85 NW10      29.28R WCI  -1
LA RONGE       FLURRIES  12   7  79 E9        29.36R WCI   0
SASKATOON      CLOUDY    14  10  85 NW8       29.23R WCI   3
SWIFT CURRENT  MOCLDY    37  25  60 W33G40    29.27R
$$
NOTE: THESE ARE AUTOMATED STATIONS WITH LIMITED QUALITY CONTROL
      "FAIR" INDICATES FEW OR NO CLOUDS BELOW 12,000 FEET WITH NO
      SIGNIFICANT WEATHER AND/OR OBSTRUCTIONS TO VISIBILITY.
      SKY/WX - SKY CONDITION AND SIGNIFICANT WEATHER.
      TMP - AIR TEMPERATURE.    DP   - DEWPOINT TEMPERATURE.
      RH  - RELATIVE HUMIDITY.  PRES - PRESSURE.
      HX  - HEAT INDEX.         WCI  - WIND CHILL INDEX.
$



USA.gov is the U.S. government's official web portal to all federal, state and local government web resources and services.